Location: Aldenham
(51.6667°N, 0.3500°W)
Time: 17:00:50
(UTC+00:00)

Vanguard 2 Rocket - Pass Details

Date: 25 February 2026
Orbit: 553 x 3286 km, 32.9° (Epoch: 11 March)

Event Time Altitude Azimuth Distance (km) Brightness Sun altitude
Rises 08:06:12 0° 191° (S) 6,623 11.5 9.4°
Reaches altitude 10° 08:12:31 10° 176° (S) 5,943 11.6 10.3°
Maximum altitude 08:23:45 19° 139° (SE) 5,464 12.6 11.8°
Drops below altitude 10° 08:35:07 10° 103° (ESE) 6,084 12.7 13.3°
Sets 08:41:36 0° 89° (E) 6,837 12.3 14.1°
